Regional Weather Roundup
Issued by NWS Upton, NY

Home | Current Version | Previous Version | Text Only | Print | Product List | Glossary On
Versions: 1 2 3 4 5 6 7 8 9 10 11 12 13 14 15 16 17 18 19 20 21 22 23 24 25 26 27
000
ASUS41 KOKX 280309
RWROKX

REGIONAL WEATHER ROUNDUP
NATIONAL WEATHER SERVICE NEW YORK NY
1100 PM EDT SAT MAY 27 2017

NOTE: "FAIR" INDICATES FEW OR NO CLOUDS BELOW 12,000 FEET WITH NO
SIGNIFICANT WEATHER AND/OR OBSTRUCTIONS TO VISIBILITY.

NYZ071-072-176-178-NJZ106-104-280400-
NEW YORK CITY METRO AREA

CITY           SKY/WX    TMP DP  RH WIND       PRES   REMARKS
Central Park   CLOUDY    63  56  78 VRB3      29.95R
Wall St Helipt CLOUDY    63  57  82 NE7       29.93S
Bronx Bot Gard   N/A     61  54  77 E1        29.95S
LaGuardia APRT MOCLDY    63  56  78 SE6       29.92S
Kennedy INTL   MOCLDY    61  59  93 SE7       29.93S
Breezy Point     N/A     59 N/A N/A E6          N/A
Newark/Liberty CLOUDY    64  57  78 E8        29.92R
Teterboro      CLOUDY    64  56  75 E5        29.91R
$$

NYZ177-179-078>081-280400-
LONG ISLAND NEW YORK

CITY           SKY/WX    TMP DP  RH WIND       PRES   REMARKS
Jones Beach      N/A     57 N/A N/A SE6         N/A
Matinecock PT  NOT AVBL
Farmingdale    CLOUDY    60  57  89 SE6       29.93F
MacArthur/ISP  CLOUDY    60  54  80 S7        29.94S
Shirley        CLOUDY    59  55  87 S6        29.94S
Mt Sinai Harb    N/A    N/A N/A N/A S8          N/A
Westhampton    MOCLDY    56  53  90 S3        29.96S
East Hampton     N/A     53  50  90 CALM      29.94S
Montauk          N/A     58  53  84 CALM      29.95S
$$

NYZ052-065-067-280400-
HUDSON VALLEY

CITY           SKY/WX    TMP DP  RH WIND       PRES   REMARKS
White Plains   CLOUDY    60  55  83 SE5       29.93R
Larchmont Harb   N/A     61 N/A N/A E6          N/A
Croton O-T Hud   N/A     64 N/A N/A MISG        N/A
Newburgh       CLOUDY    63  61  94 CALM      29.93S
Montgomery     CLOUDY    63  58  83 CALM      29.92R
Poughkeepsie   CLOUDY    63  57  81 CALM      29.91R
Albany         DRIZZLE   64  56  75 CALM      29.91S
$$

NJZ001-105-106-008-010-013-015-019>022-104-280400-
NEW JERSEY

CITY           SKY/WX    TMP DP  RH WIND       PRES   REMARKS
Newark/Liberty CLOUDY    64  57  78 E8        29.92R
Teterboro      CLOUDY    64  56  75 E5        29.91R
Caldwell       CLOUDY    66  57  72 CALM      29.92S
Somerville     CLEAR     59  57  93 CALM      29.89S
Linden         CLOUDY    64  56  75 CALM      29.91F
Perth Amboy      N/A     63 N/A N/A E5          N/A
Sussex         CLOUDY    62  60  93 CALM      29.93S
Andover          N/A     61  58  90 CALM      29.92S
Trenton        CLEAR     63  56  78 CALM      29.90S
Millville      CLOUDY    62  62 100 CALM      29.92R
Atlantic City  CLOUDY    64  59  83 CALM      29.91
Wrightstown    CLOUDY    63  58  85 CALM      29.88F
Toms River     PTCLDY    59  57  93 CALM      29.92F
Belmar         CLEAR     62  59  90 S5        29.92F
$$

PAZ047>061-062-071-280400-
EASTERN PENNSYLVANIA

CITY           SKY/WX    TMP DP  RH WIND       PRES   REMARKS
Philadelphia   CLOUDY    65  59  81 SW6       29.91S
Allentown      CLEAR     61  54  77 N3        29.91S
Scranton       MOCLDY    62  56  80 E5        29.92S
$$

CTZ002-004>006-009-010-012-RIZ004-006-007-MAZ004-011-015-280400-
SOUTHERN NEW ENGLAND
 IN CT

CITY           SKY/WX    TMP DP  RH WIND       PRES   REMARKS
Bradley INTL   MOCLDY    60  54  80 S6        29.93R
Hartford       CLOUDY    59  54  83 S5        29.93S
Danbury        CLOUDY    58  55  90 S3        29.94R
Wtrbury/Oxford   N/A     55  50  82 CALM      29.95S
Bridgeport     CLOUDY    61  55  81 CALM      29.93S
Meriden        MOCLDY    55  53  93 CALM      29.94R
New Haven      CLOUDY    56  53  90 CALM      29.94S
Chester          N/A     55  52  88 SW3       29.94S
Groton         CLOUDY    54  52  93 CALM      29.93S
Wilimantic     CLOUDY    58  55  90 CALM      29.94R

 IN RI

CITY           SKY/WX    TMP DP  RH WIND       PRES   REMARKS
Providence     MOCLDY    57  53  86 S7        29.94R
Block Island   MOCLDY    55  51  86 S7        29.95R
Westerly       PTCLDY    55  52  89 CALM      29.95R
 IN MA

CITY           SKY/WX    TMP DP  RH WIND       PRES   REMARKS
Boston         MOCLDY    55  50  83 SE7       29.94S
Worcester      CLOUDY    58  51  78 SW7       29.93S
Westfield      NOT AVBL
Provincetown   CLOUDY    52  50  93 SE5       29.96S
Nantucket      PTCLDY    48  44  86 SE3       29.97R
$$

ANZ330-335-338-340-345-350-353-355-280400-
COASTAL MARINE OBSERVATIONS


STATION/POSITION TIME  SKY/WX   TEMP    WIND        PRES    VSBY  WAVE
                                AIR SEA DIR/SP/G                  HT/PER
                 (UTC)          (F)     (DEG/KT/KT) (MB)    (MI)  (FT/S)
NY HARB ENTRANCE 0150            60 58  150/ 12/ 12 1012.9          2/ 8
20 S FIRE ISLAND 0250            58 57  120/  8/ 10 1013.0          2/ 8
GREAT SOUTH BAY  NOT AVBL
23 SSW MONTAUK P 0150            57 56              1013.9          2/ 7
15 E BARNEGAT LI 0230               59                N/A           2/ 7
HUDSON CANYON    0150            57 56  140/  4/  6 1013.5          2/ 8
KINGS POINT      0242            61 59  190/  4/  6 1013.2
EXECUTION ROCKS  0245            61                   N/A
CENTRAL LI SOUND NOT AVBL
EASTERN LI SOUND NOT AVBL
ROBBINS REEF     0242            62     120/  7/  9 1013.7
$$


>>>>>>>>>>>>>>>>>>>>>>>>>>>> KEY <<<<<<<<<<<<<<<<<<<<<<<<<<<
>                                                          <
>     SKY/WX - Sky Condition/Present Weather               <
>     TMP    - Temperature in Fahrenheit                   <
>     DP     - Dew Point in Fahrenheit                     <
>     RH     - Relative Humidity in Percent                <
>     WIND   - Direction (from) and Speed in MPH           <
>     PRES   - Mean Sea Level Pressure (inches of Hg)      <
>     WCI    - Wind Chill Index                            <
>     VSB    - VISIBILITY IN MILES                         <
>     HX     - HEAT INDEX                                  <
>     TC     - TEMPERATURE IN CELSIUS                      <
>     VRB    - VARIABLE WIND DIRECTION                     <
>                                                          <
>>>>>>>>>>>>>>>>>>>>>>>>>>>> KEY <<<<<<<<<<<<<<<<<<<<<<<<<<<




USA.gov is the U.S. government's official web portal to all federal, state and local government web resources and services.